Regional Weather Roundup
Issued by NWS

Home | Current Version | Previous Version | Text Only | Print | Product List | Glossary On
Versions: 1 2 3 4 5 6 7 8 9 10 11 12 13 14 15 16 17 18 19 20 21 22 23 24 25 26 27 28 29 30 31 32 33 34 35 36 37 38 39 40 41 42 43 44 45 46 47 48 49 50
000
ASUS42 KFFC 160603
RWRGA
WEATHER ROUNDUP FOR GEORGIA
NATIONAL WEATHER SERVICE PEACHTREE CITY GA
100 AM EST MON JAN 16 2017

NOTE: "FAIR" INDICATES FEW OR NO CLOUDS BELOW 12,000 FEET WITH NO
SIGNIFICANT WEATHER AND/OR OBSTRUCTIONS TO VISIBILITY.

* = USE WITH CAUTION. THE STATIONS MARKED WITH AN ASTERISK MAY NOT
REPORT WEATHER SUCH AS PRECIPITATION, FOG, OR THUNDER AND ARE NOT
QUALITY CONTROLLED BY NWS.

THE REMARK "TC" DENOTES TEMPERATURE READING IN DEGREES CELSIUS.

GAZ001>058-160700-
NORTH GEORGIA

CITY           SKY/WX    TMP DP  RH WIND       PRES   REMARKS
ATLANTA        CLOUDY    57  49  74 CALM      30.24F
6HR MIN TEMP:  56; 6HR MAX TEMP:  65;

ATHENS         PTCLDY    52  49  89 CALM      30.26R
6HR MIN TEMP:  52; 6HR MAX TEMP:  62;

CHAMBLEE       PTCLDY    50  47  89 CALM      30.24F
6HR MIN TEMP:  49; 6HR MAX TEMP:  61;

PEACHTREE CITY PTCLDY    48  47  96 CALM      30.25F
6HR MIN TEMP:  48; 6HR MAX TEMP:  58;

ROME           CLOUDY    50  46  86 S8        30.24R
6HR MIN TEMP:  50; 6HR MAX TEMP:  62;

WEST ATLANTA   CLOUDY    49  45  86 CALM      30.24F
6HR MIN TEMP:  48; 6HR MAX TEMP:  60;

CARTERSVILLE   CLOUDY    49  47  93 CALM      30.25S
6HR MIN TEMP:  48; 6HR MAX TEMP:  57;



CITY           SKY/WX    TMP DP  RH WIND       PRES   REMARKS
DALTON*        PTCLDY    48  48 100 CALM      30.25R
MARIETTA       CLOUDY    51  47  87 CALM      30.24F
CANTON*        CLOUDY    50  45  81 CALM      30.27S
$$

GAZ059>098-102>109-160700-
CENTRAL GEORGIA

CITY           SKY/WX    TMP DP  RH WIND       PRES   REMARKS
AUGUSTA-BUSH   FOG       48  46  93 CALM      30.26S VSB 1/2
6HR MIN TEMP:  47; 6HR MAX TEMP:  61;

AUGUSTA-DANIEL CLOUDY    59  53  80 CALM      30.26F
6HR MIN TEMP:  58; 6HR MAX TEMP:  67;

COLUMBUS       PTCLDY    55  48  77 CALM      30.23S
6HR MIN TEMP:  54; 6HR MAX TEMP:  64;

MACON          MOCLDY    51  48  89 CALM      30.24F
6HR MIN TEMP:  51; 6HR MAX TEMP:  61;

ROBINS AFB     MOCLDY    53  51  93 CALM      30.24F


CITY           SKY/WX    TMP DP  RH WIND       PRES   REMARKS
LAGRANGE*      PTCLDY    50  50 100 CALM      30.25R
SYLVANIA*      PTCLDY   N/A N/A N/A CALM      30.27F
MILLEDGEVILLE* MOCLDY    52  52 100 CALM      30.25F
$$

GAZ099>101-110>166-160700-
SOUTH GEORGIA

CITY           SKY/WX    TMP DP  RH WIND       PRES   REMARKS
SAVANNAH       FOG       56  54  93 CALM      30.27F VSB 3/4
6HR MIN TEMP:  56; 6HR MAX TEMP:  65;

VALDOSTA       MOCLDY    63  59  87 SE3       30.23F
6HR MIN TEMP:  62; 6HR MAX TEMP:  67;

ALMA           PTCLDY    57  57 100 SE3       30.26F FOG
6HR MIN TEMP:  55; 6HR MAX TEMP:  62;

ST SIMONS      CLOUDY    62  58  86 CALM      30.26S
6HR MIN TEMP:  62; 6HR MAX TEMP:  66;

FT STEWART     CLOUDY    56  54  93 CALM      30.25S
ALBANY         CLOUDY    57  55  93 CALM      30.23F
HUNTER AFB     CLOUDY    55  55 100 CALM      30.24F FOG
MOODY AFB      MOCLDY    62  58  85 E6        30.23F
BRUNSWICK      CLOUDY    57  57 100 SW3       30.27S


CITY           SKY/WX    TMP DP  RH WIND       PRES   REMARKS
BAINBRIDGE*    PTCLDY    57  55  94 CALM      30.21F
MOULTRIE*      CLOUDY    63  59  88 SE3       30.23F
VIDALIA*       MOCLDY    57  57 100 CALM      30.26F
WAYCROSS*      PTCLDY    60  60 100 CALM      30.26F
DOUGLAS*       MOCLDY    59  57  94 CALM      30.26F
$$




USA.gov is the U.S. government's official web portal to all federal, state and local government web resources and services.